Regional Weather Roundup
Issued by NWS

Home | Current Version | Previous Version | Text Only | Print | Product List | Glossary Off
Versions: 1 2 3 4 5 6 7 8 9 10 11 12 13 14 15 16 17 18 19 20 21 22 23 24 25 26 27 28 29 30 31 32 33 34 35 36 37 38 39 40 41 42 43 44 45 46 47 48 49 50

000
ASUS43 KTOP 211559
RWRKS

WEATHER ROUNDUP FOR KANSAS
NATIONAL WEATHER SERVICE GOODLAND KS
1000 AM CST SUN JAN 21 2018

NOTE:  "FAIR" INDICATES FEW OR NO CLOUDS BELOW 12,000 FEET WITH NO
SIGNIFICANT WEATHER AND/OR OBSTRUCTIONS TO VISIBILITY.

KSZ001>006-013>018-027>032-041>047-211700-
NORTHWEST KANSAS

CITY           SKY/WX    TMP DP  RH WIND       PRES   REMARKS
GOODLAND       CLOUDY    30  29  96 N16       29.72F FOG     WCI  19
HAYS           FOG       38  37  97 N9        29.72R VSB 1
HILL CITY      FOG       35  35 100 N16       29.73S VSB 3/4 WCI  25
RUSSELL        FOG       40  40 100 N8        29.69F VSB 1/4
$$

KSZ061>065-074>080-084>089-211700-
SOUTHWEST KANSAS

CITY           SKY/WX    TMP DP  RH WIND       PRES   REMARKS
DODGE CITY     FOG       35  34  96 NW7       29.74R VSB 1
GARDEN CITY    CLOUDY    32  32 100 N13       29.73S FOG     WCI  22
GREAT BEND     CLOUDY    37  37 100 W3        29.73R FOG
LIBERAL        CLOUDY    36  32  85 N14       29.75S WCI  27
$$

KSZ066>073-081>083-090>101-211700-
SOUTHEAST KANSAS

CITY           SKY/WX    TMP DP  RH WIND       PRES   REMARKS
CHANUTE        CLOUDY    61  53  75 S24G35    29.79R
COFFEYVILLE    PTSUNNY   62  54  74 S18G26    29.80R
HUTCHINSON     SUNNY     40  37  89 SW3       29.72R
MEDICINE LODGE   N/A     41  30  65 CALM      29.73R
NEWTON         CLOUDY    50  47  89 S25G31    29.71R
PARSONS        CLOUDY    61  54  77 S15G30    29.81R
WICHITA INTL   PTSUNNY   51  49  92 S22G28    29.73R
WICHITA JABRA  CLOUDY    51  50  96 S22G30    29.74R
WICHITA MCCONL CLOUDY    52  49  89 SW17G28   29.74R
$$

KSZ007>012-019>026-033>040-048>060-102>105-211700-
NORTHEAST KANSAS

CITY           SKY/WX    TMP DP  RH WIND       PRES   REMARKS
CONCORDIA      FOG       40  40 100 NE6       29.70R VSB 1/4
EMPORIA        CLOUDY    53  49  86 S13       29.74R
LAWRENCE       CLOUDY    55  51  86 SE6       29.77S
MANHATTAN      CLOUDY    51  48  89 VRB3      29.71S
OLATHE IND     CLOUDY    56  52  86 S15G22    29.78S
OLATHE EXE     CLOUDY    51  49  92 S3        29.78S
SALINA         FOG       39  39 100 CALM      29.71R VSB 1/4
TOPEKA BILLARD CLOUDY    54  51  90 S9        29.76R
TOPEKA FORBES  CLOUDY    55  51  86 S12       29.75R
$$




USA.gov is the U.S. government's official web portal to all federal, state and local government web resources and services.